POLYTECH-UNIVERSE 3 (R*)

Last updated on Wed Sep 17 2025 00:03:09 GMT+0000 (Coordinated Universal Time)

1 57191U 23091AB 25259.55468053 .00005715 00000+0 30501-3 0 9996 2 57191 97.5485 314.1116 0016637 5.4885 354.6526 15.15423496122458
UTC large
Height (km)
Speed (km/s)
/
Latitude / Longitude
Inclination (degrees)
Orbital Period (minutes)
Azimuth
Elevation
Range (km)
Doppler Factor

Next 0 passes for location: London (51.5072 / 0.1276)

Sorry there are no passes over London.